User: anonymous   Login
Location: Vancouver
(49.2500°N, 123.1330°W)
Time: 00:56:42
(UTC-07:00)
Language:

YAOGAN 6 - Orbit

View from above orbital plane
View from above orbital plane
View from above satellite
View from above satellite

Ground track
Ground track

The orbit data is extracted from the following two-line orbital elements,

1 34839U 09021A   15243.78364947  .00001923  00000-0  82220-4 0  9995
2 34839  97.2381 309.2621 0032092 120.1768 347.5372 15.23564225352717
Epoch (UTC): 31 August 2015 18:48:27
Eccentricity: 0.0032092
inclination: 97.2381°
perigee height: 473 km
apogee height: 517 km
right ascension of ascending node: 309.2621°
argument of perigee: 120.1768°
revolutions per day: 15.23564225
mean anomaly at epoch: 347.5372°
orbit number at epoch: 35271

The dashed part of the orbit path shows where the satellite is in the earth's shadow,  

DLR